Location: Chena
(64.8152°N, 147.9227°W)
Time: 13:26:14
(UTC+00:00)

N. Korean satellite - Pass Details

Date: 23 January 2021
Orbit: 451 x 503 km, 97.2° (Epoch: 28 February)

Event Time Altitude Azimuth Distance (km) Brightness Sun altitude
Rises 02:10:49 0° 169° (S) 2,586 10.6 -6.4°
Reaches altitude 10° 02:12:55 10° 173° (S) 1,701 9.7 -6.6°
Maximum altitude 02:16:33 64° 255° (WSW) 551 7.1 -6.9°
Drops below altitude 10° 02:20:10 10° 338° (NNW) 1,686 9.2 -7.2°
Sets 02:22:15 0° 342° (NNW) 2,562 10.1 -7.4°
